Location: Feydey
(46.3431°N, 7.0106°E)
Time: 07:02:24
(UTC+00:00)

Daily predictions for brighter satellites

Satellite Brightness Start Highest point End
(mag) Time Altitude Azimuth Time Altitude Azimuth Time Altitude Azimuth
Cosmos 2100 Rocket 4.4 19:57:25 10° N 20:03:38 51° ENE 20:09:45 10° SSE
USA 81 4.1 19:59:20 10° N 20:04:38 77° E 20:09:54 10° S
ERS-2 3.5 20:02:05 10° N 20:05:35 44° WNW 20:09:04 10° SW
Meteor 2-20 Rocket 4.5 19:59:37 10° S 20:05:40 68° E 20:11:43 10° NNE
ARIANE 5 R/B 3.8 20:01:49 10° SE 20:05:40 30° ENE 20:09:35 10° N
Cosmos 1315 Rocket 3.7 20:02:23 10° NNW 20:06:25 52° W 20:10:23 10° S
BREEZE-M DEB (TANK) 2.6 20:04:13 10° SW 20:06:27 42° SE 20:10:13 10° ENE
ATLAS 3B R/B 3.2 20:00:48 10° S 20:06:35 35° ESE 20:12:30 10° NE
Cosmos 1707 3.1 20:03:27 10° SSW 20:07:19 70° W 20:11:13 10° N
IGS 5A 3.5 20:04:36 10° SSE 20:08:46 89° ENE 20:12:58 10° NNW
NOSS 3-2 (C) 4.4 20:04:37 10° WSW 20:10:13 54° NW 20:16:42 10° NE
Cosmos 1461 2.9 20:06:52 10° NW 20:11:06 85° SW 20:15:07 10° SSE
ATLAS CENTAUR R/B 2.2 20:09:30 10° NNW 20:13:41 45° NE 20:18:04 10° ESE
Cosmos 2173 Rocket 4.2 20:10:21 10° N 20:16:40 60° ENE 20:22:57 10° SSE
SL-8 R/B 3.8 20:12:41 10° WNW 20:17:27 66° SSW 20:22:12 10° ESE
Cosmos 1452 Rocket 3.9 20:13:56 10° SSW 20:19:11 72° WNW 20:24:30 10° NNE
SL-4 R/B 3.7 20:18:13 10° SSE 20:20:19 13° SE 20:22:21 10° ESE
Cosmos 2219 Rocket 3.0 20:17:44 10° SSE 20:22:42 32° ESE 20:27:39 10° NE
Cosmos 2333 Rocket 2.8 20:18:42 10° S 20:23:57 38° ESE 20:29:11 10° NE
FALCON 9 DEB 3.4 20:22:52 10° SSW 20:25:47 37° SE 20:28:42 10° ENE
Cosmos 1758 4.5 20:23:43 10° NNW 20:27:29 42° W 20:31:13 10° SSW
Cosmos 1850 Rocket 4.4 20:22:27 10° NNW 20:27:42 63° WSW 20:32:51 10° S
ERS-1 Rocket 3.7 20:24:07 10° SE 20:28:48 40° ENE 20:33:30 10° N
Cosmos 1025 Rocket 3.3 20:24:41 10° SSE 20:28:54 49° E 20:33:06 10° NNE
Lacrosse 5 rocket 0.9 20:25:46 10° SW 20:29:28 85° SE 20:33:05 10° NE
Cosmos 1844 3.7 20:25:04 10° NNW 20:30:40 82° ENE 20:36:02 11° SSE
Spot 2 Rocket 3.6 20:28:32 10° SSE 20:33:32 64° ENE 20:38:34 10° N
Cosmos 1727 Rocket 4.4 20:28:28 10° SSW 20:34:46 71° W 20:41:02 10° N
Cosmos 1725 Rocket 4.4 20:29:01 10° N 20:34:59 47° ENE 20:40:28 12° SSE
Cosmos 1331 Rocket 4.0 20:31:02 10° SSW 20:36:16 77° ESE 20:41:34 10° NNE
Cosmos 1900 4.3 20:34:39 10° NW 20:39:35 87° WSW 20:43:50 14° SSE
DNEPR-1 R/B 3.7 20:35:38 10° NNW 20:39:50 62° NE 20:43:36 14° SE
FALCON 9 DEB 2.7 20:38:17 10° SW 20:41:22 70° SE 20:44:27 10° ENE
KORONAS-FOTON 4.2 20:39:22 10° SSW 20:43:08 65° W 20:46:54 10° N
CENTAUR R/B 4.4 20:37:29 10° W 20:43:14 37° NNW 20:50:01 10° NNE
Cosmos 2237 Rocket 3.9 20:41:58 11° ESE 20:44:12 14° E 20:46:58 10° ENE
CARTOSAT-1 3.6 20:40:17 12° SSE 20:44:13 72° ENE 20:48:32 10° N
SL-14 R/B 3.7 20:41:31 11° SSE 20:45:08 46° E 20:49:00 10° NNE
Terra 2.6 20:41:19 13° SE 20:45:09 39° ENE 20:49:34 10° N
SPOT 1/Viking Rocket 3.7 20:41:05 10° S 20:46:12 72° WSW 20:51:22 10° NNW
Cosmos 2360 Rocket 2.5 20:41:13 10° SSW 20:46:51 72° WNW 20:52:31 10° NNE
Cosmos 1674 3.3 20:43:32 10° SSW 20:47:10 57° W 20:50:51 10° N
CZ-2C R/B 4.0 20:43:34 10° NNE 20:48:22 78° WNW 20:53:07 10° SSW
FALCON 9 DEB 2.8 20:46:14 10° SW 20:49:19 64° SE 20:52:25 10° ENE
Cosmos 2322 Rocket 3.6 20:45:46 10° SW 20:51:09 42° NW 20:56:35 10° NNE
SL-16 R/B 4.1 20:46:12 10° WSW 20:51:20 34° NW 20:56:30 10° NNE
Cosmos 1953 3.0 20:47:49 10° NNW 20:51:48 53° W 20:55:44 10° S
FALCON 9 DEB 2.7 20:48:48 10° SW 20:51:54 81° SSE 20:55:02 10° ENE
Meteor 2-11 Rocket 4.5 20:46:26 10° N 20:52:34 86° W 20:58:33 10° S
SPOT 5 3.1 20:48:16 14° SSE 20:52:35 64° ENE 20:57:23 10° N
USA 245 4.4 20:48:22 10° S 20:53:23 71° W 20:59:21 10° NNW
Cosmos 1975 Rocket 4.0 20:50:12 10° SSW 20:54:25 48° WNW 20:58:43 10° N
Meteor 1-24 Rocket 4.3 20:51:24 14° SSE 20:55:27 38° E 21:00:29 10° NNE
Cosmos 1802 Rocket 4.1 20:49:32 10° N 20:55:51 90° N 21:01:57 11° S
Cosmos 1459 Rocket 4.1 20:51:14 10° NNW 20:57:16 73° W 21:03:18 10° S
Cosmos 1302 Rocket 4.1 20:52:27 10° S 20:57:37 60° ESE 21:02:47 10° NNE
H-2A R/B 4.5 20:54:12 10° NE 20:57:45 28° E 20:59:52 18° SE
Cosmos 1300 2.8 21:00:06 10° N 21:03:53 61° ENE 21:06:19 20° SSE
Resurs 01 Rocket 3.6 21:01:56 10° SSW 21:05:29 24° W 21:09:03 10° NW
Cosmos 1340 2.7 21:07:27 11° SSW 21:11:02 83° W 21:14:50 10° N
Cosmos 2322 3.7 21:08:50 10° SSW 21:14:29 89° WNW 21:20:11 10° NNE
COSMOS 2428 2.7 21:10:30 10° SSW 21:16:11 67° ESE 21:21:54 10° NNE
Cosmos 2278 Rocket 2.9 21:11:22 10° NNW 21:16:48 44° NE 21:20:55 17° ESE
Cosmos 1844 Rocket 3.8 21:12:31 10° NW 21:17:40 37° WSW 21:22:30 11° S
NOSS 0 Rocket 4.4 21:17:59 17° SSE 21:22:17 40° ESE 21:28:02 10° NE
Cosmos 389 Rocket 3.3 21:19:42 10° N 21:22:55 36° ENE 21:24:17 25° ESE
Cosmos 1867 3.7 21:19:42 10° NW 21:25:13 76° NE 21:28:54 21° SE
ATLAS 2A CENTAUR R/B 4.5 21:23:38 10° SW 21:26:23 11° SSW 21:27:33 11° S
Cosmos 968 Rocket 3.4 21:25:09 10° NNW 21:30:18 88° WSW 21:33:29 24° SSE
Cosmos 1626 4.0 21:30:54 10° SW 21:34:07 28° WNW 21:37:22 10° NNW
Cosmos 967 Rocket 4.5 21:28:52 10° NW 21:35:15 83° WSW 21:39:28 23° SSE
Cosmos 1486 Rocket 4.0 21:30:33 10° NNW 21:35:48 79° ENE 21:38:52 25° SSE
Cosmos 2123 Rocket 4.4 21:30:29 10° SSW 21:36:43 65° WNW 21:43:02 10° N
SJ 16-02 3.9 21:35:56 10° NE 21:36:54 11° NE 21:37:52 10° ENE
Meteor 2-10 Rocket 3.4 21:34:41 10° N 21:39:46 77° ENE 21:42:36 26° SSE
Cosmos 1606 Rocket 3.8 21:35:59 10° N 21:40:25 57° ENE 21:42:32 28° SE
Uosat 12 SS-18 rocket 4.2 21:36:31 10° SW 21:40:53 87° WNW 21:45:58 10° NE
Cosmos 2233 Rocket 4.0 21:35:09 10° N 21:41:21 87° W 21:45:35 22° S
Cosmos 1992 Rocket 4.0 21:37:59 20° S 21:41:28 61° ESE 21:46:38 10° NNE
Cosmos 1943 Rocket 4.3 21:38:15 10° N 21:41:58 18° NE 21:45:40 10° E
ARIANE 5 R/B 4.1 21:38:34 13° SSW 21:42:04 32° W 21:46:05 10° NNW
Cosmos 1892 Rocket 4.3 21:43:59 27° SE 21:45:36 37° E 21:49:43 10° NNE
Cosmos 1346 Rocket 2.7 21:47:04 29° S 21:49:02 79° E 21:53:04 10° NNE
Cosmos 1447 Rocket 4.4 21:44:53 20° S 21:49:18 79° E 21:55:29 10° N
Cosmos 1354 Rocket 4.4 21:46:47 10° NNW 21:52:04 56° ENE 21:55:00 25° SE
ATLAS CENTAUR R/B 3.1 21:48:44 10° WNW 21:52:24 26° WSW 21:54:30 19° SSW
Cosmos 1980 3.9 21:51:14 24° S 21:54:31 55° ESE 22:00:05 10° NE
BREEZE-M DEB (TANK) 3.5 21:44:10 10° SW 21:55:57 52° SSE 21:59:31 10° ENE
ATLAS 3B R/B 3.3 21:50:31 10° WSW 21:56:58 57° NW 22:03:40 10° NE
SL-4 R/B 1.8 21:55:17 10° SW 21:59:24 64° SSE 22:03:12 10° ENE
ALOS 2 4.2 21:57:54 17° ESE 22:00:01 25° ENE 22:03:35 10° N
FALCON 9 DEB 4.4 21:58:30 10° W 22:01:28 39° NNW 22:04:28 10° NE
Cosmos 2219 Rocket 3.3 22:01:02 10° SW 22:06:28 45° NW 22:11:55 10° NNE
ERS-1 Rocket 4.5 22:04:07 13° SSW 22:07:42 28° W 22:12:01 10° NW
Cosmos 2333 Rocket 3.6 22:02:51 10° WSW 22:08:12 39° NW 22:13:34 10° NNE
Lacrosse 5 rocket 3.7 22:06:00 10° WNW 22:08:55 22° NNW 22:11:50 10° NNE
Cosmos 1607 4.0 22:02:45 10° NW 22:09:14 86° NE 22:12:53 27° SE
Cosmos 1703 4.1 22:08:43 31° ESE 22:09:27 34° E 22:13:04 10° NNE
Cosmos 2228 3.5 22:07:48 10° NNW 22:12:07 55° W 22:14:06 29° SSW
Iridium 2 3.5 22:12:19 44° S 22:13:25 85° E 22:17:11 10° N
Meteor 2-1 Rocket 4.3 22:14:07 10° N 22:19:37 66° ENE 22:22:14 32° SSE
USA 215 3.3 22:13:38 10° ENE 22:20:02 55° SE 22:25:28 15° SSW
Terra 3.4 22:20:12 16° SW 22:22:59 26° W 22:27:00 10° NW
COBE Rocket 4.3 22:22:10 31° SE 22:24:21 56° ENE 22:29:10 10° N
SL-16 R/B 3.1 22:23:55 28° SE 22:25:27 32° ESE 22:30:26 10° NE
Cosmos 2237 Rocket 2.1 22:23:45 23° SSW 22:27:24 90° SE 22:33:04 10° NNE
Cosmos 1455 2.3 22:25:15 10° NNW 22:29:03 67° W 22:29:59 47° SSW
Cosmos 1184 Rocket 2.6 22:29:49 69° SSW 22:30:09 86° WNW 22:33:25 10° N
Cosmos 1464 Rocket 4.0 22:24:45 10° N 22:31:10 85° E 22:34:26 31° S
Cosmos 1328 4.5 22:31:00 35° ESE 22:31:31 37° E 22:35:08 10° NNE
Cosmos 1503 Rocket 4.4 22:30:30 10° NNW 22:35:47 57° WSW 22:37:58 33° SSW
Cosmos 192 4.3 22:33:47 32° SSW 22:36:05 89° E 22:41:02 10° NNE
Cosmos 2369 Rocket 4.1 22:31:41 10° N 22:36:17 24° NE 22:40:51 10° E
GEOS 3 Rocket 3.6 22:38:08 31° SE 22:40:51 88° NE 22:46:14 10° NW
ATLAS CENTAUR R/B 3.2 22:40:45 29° SSW 22:43:34 66° SE 22:55:35 10° NE
USA 32 4.5 22:46:13 10° N 22:51:21 51° E 22:53:23 33° SE
USA 267 3.5 22:47:29 10° ESE 22:53:58 68° NNE 23:00:28 10° NW
Okean 1-7 Rocket 3.7 22:54:15 41° SSW 22:55:44 73° W 23:00:11 10° N
Cosmos 1812 Rocket 4.0 22:53:52 10° N 22:58:08 50° ENE 22:59:21 38° SE
BREEZE-M DEB (TANK) 3.4 22:56:27 10° W 22:59:52 63° N 23:09:49 10° E
Cosmos 2278 Rocket 3.3 22:55:45 10° NW 23:00:43 32° WSW 23:02:45 25° SW
Cosmos 2058 Rocket 3.9 22:58:56 10° NNW 23:03:06 41° W 23:04:24 32° SW
Cosmos 2297 3.8 22:57:51 10° NNW 23:03:32 73° ENE 23:06:10 33° SE
Cosmos 2034 Rocket 4.0 23:01:05 10° NNW 23:07:16 74° W 23:10:01 35° S
NOSS 2-3 (C) 4.1 23:07:22 38° ESE 23:07:29 38° ESE 23:11:48 10° NE
Thor Agena Rocket 4.1 23:03:14 10° NNE 23:08:14 44° E 23:09:46 35° SE
SAR-Lupe-2 3.7 23:05:51 10° NNE 23:09:24 56° ESE 23:09:33 56° ESE
SJ 16-02 1.3 23:11:54 10° NNW 23:16:18 76° ENE 23:17:28 48° SE
Cosmos 1174 4.4 23:14:18 36° SSW 23:16:39 78° ESE 23:21:22 10° NE
Cosmos 1777 Rocket 4.3 23:16:10 10° NNW 23:21:19 54° WSW 23:22:57 39° SSW
Meteor 1-11 4.1 23:19:57 39° S 23:22:05 78° E 23:27:42 10° NNE
Meteor 1-27 4.5 23:19:16 10° N 23:24:47 61° ENE 23:27:14 33° SE
GP-B 3.1 23:20:28 10° N 23:24:55 73° E 23:26:01 49° SSE
Cosmos 1825 Rocket 4.2 23:25:14 37° SE 23:26:14 43° E 23:30:28 10° NNE
Cosmos 1943 Rocket 2.1 23:21:01 10° NNW 23:26:33 86° ENE 23:28:53 36° SSE
Meteor 1-4 Rocket 3.0 23:23:15 10° NNW 23:26:33 43° W 23:26:36 43° W
Nimbus 7 Rocket 4.4 23:20:55 10° NNE 23:27:01 88° ESE 23:29:47 35° SSW
Cosmos 1892 3.5 23:30:16 37° ESE 23:30:44 39° E 23:34:23 10° NNE
MTI 4.0 23:29:34 10° N 23:32:27 58° WNW 23:32:27 58° WNW
ALOS 2 3.4 23:35:17 33° SW 23:36:10 37° W 23:40:16 10° NNW
Cosmos 1869 3.9 23:33:07 10° N 23:37:07 49° ENE 23:38:08 39° ESE
Tsikada Rocket 4.1 23:34:13 33° SSW 23:37:09 69° W 23:43:18 10° N
CZ-2D R/B 4.4 23:36:12 10° ENE 23:37:42 11° E 23:39:12 10° ESE
Cosmos 1943 4.2 23:36:45 26° SE 23:38:21 31° ESE 23:43:14 10° NE
SL-4 R/B 3.0 23:35:19 10° W 23:39:07 43° NNW 23:42:39 10° ENE
Cosmos 990 Rocket 4.4 23:35:09 10° NNW 23:40:18 58° ENE 23:42:50 29° SE
Lacrosse 4 Rocket 4.2 23:38:07 10° N 23:40:27 14° NE 23:42:45 10° ENE
USA 229 DEB 3.6 23:38:46 35° S 23:41:27 63° ESE 23:48:09 10° NE
USA 229 3.6 23:38:53 36° S 23:41:33 62° ESE 23:48:15 10° NE
EO 1 Del DPAF 4.0 23:38:51 10° NNE 23:42:19 36° E 23:42:38 35° ESE
NOSS 8 (F) 4.4 23:43:55 60° ENE 23:43:55 60° ENE 23:46:28 10° NE
Cosmos 1603 4.5 23:46:12 30° SE 23:47:58 38° ESE 23:53:10 10° NE
Lacrosse 5 rocket 4.3 23:46:53 10° NW 23:49:04 15° N 23:51:15 10° NE
NOSS 3-1 (C) 3.3 23:46:44 30° SW 23:49:36 80° NW 23:55:58 10° NE
Cosmos 1953 Rocket 4.0 23:50:42 41° SE 23:51:45 52° E 23:56:03 10° NNE
SL-16 R/B 4.3 23:47:51 10° ESE 23:52:47 26° ENE 23:57:43 10° N
Cosmos 1408 2.7 23:53:09 55° SE 23:53:31 59° E 23:57:10 10° NNE
Cosmos 1825 3.2 23:54:28 32° ESE 23:55:02 34° E 23:58:29 10° NNE
